シューメーカー第1彗星

102P/Shoemaker 1 (2021)

English version
Home page
Updated on October 3, 2021

---------------------------------------------------------------------

・ プロフィール

・ 写真集

・ 軌道要素

Epoch 2021 July 5.0 TT = JDT 2459400.5                                          
T 2021 Jan. 22.46297 TT                                 Rudenko                 
q   2.0699932            (2000.0)            P               Q                  
n   0.13238235     Peri.   20.55127     +0.98758785     -0.03165521             
a   3.8128464      Node   339.36569     -0.09252967     +0.67421988             
e   0.4571003      Incl.   25.88460     +0.12691929     +0.73785195             
P   7.45                                                                        
From 432 observations 1999 Dec. 31-2021 Sept. 18, mean residual 0".9.           
     Nongravitational parameters A1 = -1.68, A2 = -0.1344.                      

・ 光度変化

        m1 = 14.5 + 5 logΔ + 10.0 log r

---------------------------------------------------------------------

軌道要素はM.P.E.C. 2021-S45に掲載されたものです。
光度グラフはComet for Windowsで作成したものです。

---------------------------------------------------------------------

Copyright(C) Seiichi Yoshida (comet@aerith.net). All rights reserved.